| time (UTC) | temp F | wind direction | speed MPH | gust MPH | rain 1hr in | rain 24hr in | rain mn in | humidity % | barometer mb |
| 20260505054532 | 54 | 205 | 7.0 | 20.0 | 0.00 | 0.00 | 0.00 | 61 | 1001.4 |
| 20260505053032 | 54 | 259 | 6.0 | 22.0 | 0.00 | 0.00 | 0.00 | 62 | 1001.5 |
| 20260505051527 | 55 | 208 | 12.0 | 29.0 | 0.00 | 0.00 | 0.00 | 62 | 1001.5 |
| 20260505041515 | 58 | 344 | 3.0 | 12.0 | 0.00 | 0.00 | 0.00 | 58 | 1000.4 |
| 20260505040019 | 59 | 16 | 7.0 | 14.0 | 0.00 | 0.00 | 0.00 | 54 | 999.8 |
| 20260505034512 | 59 | 259 | 14.0 | 30.0 | 0.00 | 0.00 | 0.00 | 48 | 999.6 |
| 20260505033010 | 60 | 162 | 19.0 | 35.0 | 0.00 | 0.00 | 0.00 | 51 | 999.6 |
| 20260505031506 | 61 | 210 | 12.0 | 24.0 | 0.00 | 0.00 | 0.00 | 43 | 999.3 |
| 20260505030005 | 62 | 232 | 6.0 | 12.0 | 0.00 | 0.00 | 0.00 | 39 | 999.1 |
| 20260505024504 | 62 | 268 | 4.0 | 8.0 | 0.00 | 0.00 | 0.00 | 38 | 999.1 |
| 20260505023004 | 62 | 22 | 1.0 | 4.0 | 0.00 | 0.00 | 0.00 | 38 | 998.9 |
| 20260505021503 | 63 | 226 | 6.0 | 15.0 | 0.00 | 0.00 | 0.00 | 38 | 998.8 |
| 20260505020002 | 63 | 239 | 10.0 | 20.0 | 0.00 | 0.00 | 0.00 | 38 | 998.7 |
| 20260505014503 | 63 | 222 | 6.0 | 12.0 | 0.00 | 0.00 | 0.00 | 37 | 998.6 |
| 20260505013001 | 63 | 120 | 5.0 | 16.0 | 0.00 | 0.00 | 0.00 | 38 | 998.8 |
| 20260505011601 | 64 | 96 | 8.0 | 17.0 | 0.00 | 0.00 | 0.00 | 37 | 998.8 |
| 20260505011500 | 64 | 147 | 10.0 | 17.0 | 0.00 | 0.00 | 0.00 | 37 | 998.8 |
| 20260505010104 | 67 | 59 | 0.0 | 2.0 | 0.00 | 0.00 | 0.00 | 31 | 998.7 |
| 20260505004600 | 66 | 104 | 0.0 | 3.0 | 0.00 | 0.00 | 0.00 | 31 | 998.7 |
| 20260505003104 | 66 | 117 | 0.0 | 3.0 | 0.00 | 0.00 | 0.00 | 32 | 998.7 |
| 20260505001558 | 66 | 359 | 0.0 | 8.0 | 0.00 | 0.00 | 0.00 | 33 | 998.9 |
| 20260505000058 | 65 | 356 | 6.0 | 10.0 | 0.00 | 0.00 | 0.00 | 33 | 998.9 |
| 20260504234555 | 66 | 28 | 5.0 | 13.0 | 0.00 | 0.00 | 0.00 | 33 | 999.1 |
| 20260504233058 | 67 | 49 | 5.0 | 12.0 | 0.00 | 0.00 | 0.00 | 31 | 999.0 |
| 20260504231553 | 66 | 51 | 3.0 | 12.0 | 0.00 | 0.00 | 0.00 | 33 | 998.9 |
| 20260504230051 | 66 | 29 | 3.0 | 8.0 | 0.00 | 0.00 | 0.00 | 32 | 999.0 |
| 20260504224551 | 66 | 6 | 5.0 | 11.0 | 0.00 | 0.00 | 0.00 | 32 | 999.1 |
| 20260504223104 | 67 | 13 | 4.0 | 15.0 | 0.00 | 0.00 | 0.00 | 33 | 999.1 |
| 20260504221551 | 67 | 18 | 9.0 | 16.0 | 0.00 | 0.00 | 0.00 | 33 | 999.1 |
| 20260504220047 | 67 | 352 | 5.0 | 10.0 | 0.00 | 0.00 | 0.00 | 33 | 999.2 |
| 20260504214547 | 67 | 302 | 2.0 | 8.0 | 0.00 | 0.00 | 0.00 | 32 | 999.3 |
| 20260504213046 | 67 | 263 | 5.0 | 9.0 | 0.00 | 0.00 | 0.00 | 33 | 999.4 |
| 20260504211622 | 67 | 252 | 5.0 | 15.0 | 0.00 | 0.00 | 0.00 | 34 | 999.2 |
| 20260504210049 | 67 | 255 | 5.0 | 12.0 | 0.00 | 0.00 | 0.00 | 31 | 999.4 |
| 20260504204544 | 69 | 300 | 2.0 | 7.0 | 0.00 | 0.00 | 0.00 | 28 | 999.2 |
| 20260504203044 | 70 | 256 | 6.0 | 12.0 | 0.00 | 0.00 | 0.00 | 27 | 999.3 |
| 20260504201542 | 70 | 300 | 2.0 | 9.0 | 0.00 | 0.00 | 0.00 | 27 | 999.3 |
| 20260504200041 | 71 | 238 | 7.0 | 11.0 | 0.00 | 0.00 | 0.00 | 26 | 999.4 |
| 20260504194547 | 70 | 207 | 5.0 | 19.0 | 0.00 | 0.00 | 0.00 | 27 | 999.5 |
| 20260504193037 | 70 | 335 | 3.0 | 14.0 | 0.00 | 0.00 | 0.00 | 28 | 999.7 |
| 20260504191537 | 68 | 184 | 10.0 | 19.0 | 0.00 | 0.00 | 0.00 | 29 | 999.9 |
| 20260504190036 | 69 | 206 | 11.0 | 21.0 | 0.00 | 0.00 | 0.00 | 28 | 1000.1 |
| 20260504184543 | 70 | 191 | 3.0 | 10.0 | 0.00 | 0.00 | 0.00 | 29 | 1000.3 |
| 20260504183028 | 69 | 333 | 2.0 | 11.0 | 0.00 | 0.00 | 0.00 | 31 | 1000.5 |
| 20260504181530 | 69 | 87 | 6.0 | 16.0 | 0.00 | 0.00 | 0.00 | 29 | 1000.8 |
| 20260504180025 | 68 | 25 | 3.0 | 9.0 | 0.00 | 0.00 | 0.00 | 30 | 1001.0 |
| 20260504174622 | 67 | 246 | 2.0 | 13.0 | 0.00 | 0.00 | 0.00 | 32 | 1001.2 |
| 20260504173018 | 66 | 354 | 4.0 | 11.0 | 0.00 | 0.00 | 0.00 | 32 | 1001.3 |
| 20260504171519 | 67 | 113 | 4.0 | 12.0 | 0.00 | 0.00 | 0.00 | 31 | 1001.5 |
| 20260504081536 | 59 | 121 | 8.0 | 21.0 | 0.00 | 0.00 | 0.00 | 35 | 1002.1 |